Regional Weather Roundup
Issued by NWS

Home | Current Version | Previous Version | Text Only | Print | Product List | Glossary Off
Versions: 1 2 3 4 5 6 7 8 9 10 11 12 13 14 15 16 17 18 19 20 21 22 23 24 25 26 27 28 29 30 31 32 33 34 35 36 37 38 39 40 41 42 43 44 45 46 47 48 49 50

000
ASUS45 KBOI 020110
RWRID
WEATHER ROUNDUP FOR IDAHO
NATIONAL WEATHER SERVICE BOISE ID
700 PM MDT MON SEP 01 2014

NOTE: "FAIR" INDICATES FEW OR NO CLOUDS BELOW 12000 FEET
WITH NO SIGNIFICANT WEATHER AND/OR OBSTRUCTIONS TO VISIBILITY

IDZ012-014-020200-
SOUTHWEST IDAHO


CITY           SKY/WX    TMP DP  RH WIND       PRES   REMARKS
BOISE          SUNNY     76  36  23 N8        30.00S
CALDWELL       SUNNY     75  39  27 N8        30.01S
MOUNTAIN HOME  SUNNY     78  31  18 NW13      29.99F
$$

IDZ016-017-020200-
SOUTHCENTRAL IDAHO


CITY           SKY/WX    TMP DP  RH WIND       PRES   REMARKS
BURLEY         FAIR      71  40  32 VRB7      30.03F
JEROME         SUNNY     72  37  28 W9        30.04F
TWIN FALLS     SUNNY     74  38  27 CALM      30.05S
$$

IDZ019>023-020200-
SOUTHEAST IDAHO


CITY           SKY/WX    TMP DP  RH WIND       PRES   REMARKS
IDAHO FALLS    SUNNY     72  36  26 SW14      30.06S
POCATELLO      SUNNY     72  35  25 W10       30.06F
REXBURG        SUNNY     68  36  30 S8        30.06S
$$

IDZ006-010-011-018-031-032-020200-
CENTRAL IDAHO MOUNTAINS


CITY           SKY/WX    TMP DP  RH WIND       PRES   REMARKS
MCCALL         SUNNY     66  32  28 VRB5      30.07F
HAILEY         SUNNY     70  37  30 S13       30.07S
STANLEY          N/A     66  31  27 NW6       30.13R
SALMON         SUNNY     72  39  30 NW3       29.96S
CHALLIS        SUNNY     75  34  22 NE3       29.99F
$$

IDZ002-004-006-007-026-020200-
NORTHERN IDAHO


CITY           SKY/WX    TMP DP  RH WIND       PRES   REMARKS
LEWISTON       SUNNY     78  42  27 N7        29.94F
LOWELL           N/A     68  48  48 CALM      29.94F
COEUR D`ALENE  PTSUNNY   72  37  28 SW12      29.96S
MULLAN PASS    SUNNY     49  37  63 VRB6      30.09F
$$


USA.gov is the U.S. government's official web portal to all federal, state and local government web resources and services.